User: anonymous   Login
Location: La Brionne
(46.1728°N, 1.7849°E)
Time: 19:13:21
(UTC+00:00)
Language:

FENGYUN 1C DEB - Orbit

View from above orbital plane
View from above orbital plane
View from above satellite
View from above satellite

Ground track
Ground track

The orbit data is extracted from the following two-line orbital elements,

1 30697U 99025ARF 22024.41652852  .00001057  00000-0  66346-3 0  9994
2 30697  99.0058  76.0692 0100049 202.9151 170.3776 14.04253647763005
Epoch (UTC): 24 January 2022 09:59:48
Eccentricity: 0.0100049
inclination: 99.0058°
perigee height: 806 km
apogee height: 952 km
right ascension of ascending node: 76.0692°
argument of perigee: 202.9151°
revolutions per day: 14.04253647
mean anomaly at epoch: 170.3776°
orbit number at epoch: 76300

The dashed part of the orbit path shows where the satellite is in the earth's shadow,  

DLR